Terug naar catalogus

QIANFAN-81

ActiefCommunicatiePO
NORAD 63167·PAYLOAD·🇨🇳 China

Gelanceerd Mar 11, 2025 vanaf Wenchang Space Launch Site

Loading…

Volgende Passages (komende 24 uur)

TLE

VersSource: Space-Track

Epoch: Sep 14, 2026, 21:25 UTC

1 63167U 25046J   26257.89301788  .00000092  00000-0  12364-3 0  9996
2 63167  88.9651 291.2046 0016235  50.1287 310.1290 13.51020105 84776

Volg QIANFAN-81 in realtime met AllMySat

Download on the App Store